Regional Weather Roundup
Issued by NWS Kansas City/Pleasant Hill, MO

Home | Current Version | Previous Version | Text Only | Print | Product List | Glossary On
Versions: 1 2 3 4 5 6 7 8 9 10 11 12 13 14 15 16 17 18 19 20 21 22 23 24 25 26 27 28 29 30 31 32 33 34 35 36 37 38 39 40 41 42 43 44 45 46 47 48 49 50
000
ASUS43 KEAX 200611
RWREAX

WEATHER ROUNDUP FOR EASTERN KANSAS AND NORTHWEST MISSOURI
NATIONAL WEATHER SERVICE KANSAS CITY/PLEASANT HILL MO
100 AM CDT SAT SEP 20 2014

KSZ040-057-103>105-MOZ028-029-037-043-200700-
...KANSAS CITY METROPOLITAN AREA...

CITY           SKY/WX    TMP DP  RH WIND       PRES   REMARKS
K.C. INTL      CLEAR     68  66  93 S12       29.94F
6HR MIN TEMP:  68; 6HR MAX TEMP:  75;

K.C. DOWNTOWN  CLEAR     71  66  84 S9        29.94S
6HR MIN TEMP:  70; 6HR MAX TEMP:  78;

LEES SUMMIT    CLEAR     69  66  90 SW8       29.96S
6HR MIN TEMP:  68; 6HR MAX TEMP:  76;

OLATHE - IXD   PTCLDY    67  66  97 S8        29.96F FOG
6HR MIN TEMP:  67; 6HR MAX TEMP:  76;

OLATHE - OJC   PTCLDY    68  66  93 S10       29.95S FOG
6HR MIN TEMP:  68; 6HR MAX TEMP:  76;

LAWRENCE       CLEAR     68  65  90 S6        29.94F FOG

$$

MOZ001>008-011>017-020>025-030>033-038>040-044>046-053-054-200700-
...NORTHERN AND CENTRAL MISSOURI...

CITY           SKY/WX    TMP DP  RH WIND       PRES   REMARKS
ST. JOSEPH     PTCLDY    69  67  93 S9        29.90F
6HR MIN TEMP:  69; 6HR MAX TEMP:  76;

MOSBY          CLEAR     68  68 100 S5        29.94S
WHITEMAN AFB   CLEAR     64  63  94 S9        29.95F
6HR MIN TEMP:  64; 6HR MAX TEMP:  73;

CLINTON        CLEAR     66  64  94 CALM      29.98F
SEDALIA        CLEAR     68  63  84 S9        29.97F
6HR MIN TEMP:  66; 6HR MAX TEMP:  73;

WARSAW         NOT AVBL
MARSHALL       CLEAR     68  66  94 SW6       29.96F
CHILLICOTHE      N/A     69  65  86 S6        29.93F
6HR MIN TEMP:  67; 6HR MAX TEMP:  75;

MOBERLY        CLEAR     68  59  73 S9        29.96F
KIRKSVILLE     CLEAR     67  62  84 S10       29.93F
6HR MIN TEMP:  65; 6HR MAX TEMP:  70;


$$

MOZ041-047>049-056>058-063>065-088>090-097-200700-
...EASTERN AND SOUTHERN MISSOURI...

CITY           SKY/WX    TMP DP  RH WIND       PRES   REMARKS
ST. LOUIS INTL PTCLDY    68  59  73 S6        30.01S
6HR MIN TEMP:  68; 6HR MAX TEMP:  77;

SPIRIT OF STL  CLEAR     57  57 100 CALM      29.99F FOG
COLUMBIA       CLEAR     63  61  93 S7        29.98F
JEFFERSON CITY CLEAR     62  60  93 E3        29.98F
MEXICO         CLEAR    N/A N/A N/A S6        29.97F
HANNIBAL       CLEAR     63  59  88 S6        29.95F
ROLLA          CLEAR     66  62  87 S12       29.99F FOG
LEBANON        CLEAR     64  63  94 S7        30.02S
OSAGE BEACH    CLEAR     63  61  94 S6        29.99F
SPRINGFIELD    CLEAR     67  63  87 S12       30.01F
BRANSON        CLEAR     66  66 100 CALM      30.04S
NEVADA         CLEAR     64  64 100 S6        29.99S
JOPLIN         CLEAR     67  66  97 SE7       29.99F
WEST PLAINS    CLEAR     62  60  93 CALM      30.05F FOG

$$

IAZ060-094-KSZ022-034>040-054-083-096-NEZ052-066-093-200700-
...KANSAS...SOUTHEAST NEBRASKA AND IOWA...

CITY           SKY/WX    TMP DP  RH WIND       PRES   REMARKS
TOPEKA         CLEAR     71  68  90 S9        29.93F
6HR MIN TEMP:  71; 6HR MAX TEMP:  79;

MANHATTAN      CLEAR     71  68  90 SW7       29.92S
EMPORIA        CLEAR     68  67  96 S15       29.96S FOG
CHANUTE        CLEAR     65  65 100 S5        29.98S FOG
WICHITA        PTCLDY    71  67  87 S10       29.97R
OMAHA          PTCLDY    74  67  78 S14       29.80F
LINCOLN        CLEAR     75  67  76 S17G26    29.81F
FALLS CITY     CLEAR     70  68  93 S16       29.87F
LAMONI         CLEAR     68  66  93 S13       29.90R
DES MOINES     CLOUDY    72  66  81 SW15      29.83S

$$




USA.gov is the U.S. government's official web portal to all federal, state and local government web resources and services.